DECAYED

DMSP 5D-2 F13 DEB, 42288 (Decayed)

Orbit data source: Space-Track

DMSP 5D-2 F13 DEB, 42288 was space debris in SSO originally from a launch on Fri, 24 Mar 1995 UTC launched from the Air Force Western Test Range (AFWTR). Debris objects in space refer to the collection of defunct objects orbiting the Earth. Examples of debris include non-operational satellites, rocket bodies, and fragments generated from explosions, collisions, or faulty payload assembly.

Not visible in the next 10 days
Identifier
42288, 1995-015HE
Orbit
Decayed
Country
Flag of USUS
Related business
Manufacturer
Unknown
Mission
Decayed spacecraft
Bus & Motor
Unknown
Mass
Unknown
Launch date (UTC)
1995-03-24 (31 years ago)
Launch vehicle
Unknown
Launch site
Air Force Western Test Range (AFWTR)
Object type
Payload
Rocket body
Debris
Shape & HBR
Unknown shape, 0.1 m
Radar Cross Section
Small (<0.1 m²)

Expand to show TLE details & history
Last TLE update: 1 year ago

TLE from 1 year ago
0 DMSP 5D-2 F13 DEB
1 42288U 95015HE  25028.23763887  .02516196  00000-0  17361-1 0  9994
2 42288  98.7475 211.0762 0025853 318.7332  41.1972 15.70546671512672
Epoch: 2025-01-28T05:42Z
TLE epoch observation values (Epoch: 2025-01-28T05:42:11.998Z)
Latitude
0.00002°
Longitude
-2.22007°
Altitude
347.364 km
Speed
7.708 km/s
True Right ascension
14h 04m 18s
True Declination
0° 00' 00"
Sunlit
Object was in daylight at epoch
Visualization orbit readout
Latitude
Unknown
Longitude
Unknown
Altitude
Unknown
Speed
Unknown
Apparent Right ascension
Unknown
Apparent Declination
Unknown
Sunlit
N/A
Visualization observer readout
Local Sidereal Time
11:11:14
Azimuth
Unknown
Elevation
Unknown
Doppler factor
Unknown
Orbital elements
Apogee altitude
371.702 km
Perigee altitude
336.891 km
Semi-major axis
6,732.433 km
Eccentricity
0.00259
Inclination
98.7475°
RAAN
211.0762°
Arg. of periapsis
318.7332°
True anomaly
41.3928°
Mean anomaly
41.1972°
Eccentric anomaly
41.29495°
Mean motion
3.92903 °/min
Orbital period
91.63 mins
BSTAR
0.017361
Loading maneuver chart data...
Computing Atmospheric mass density...

Documentation

Showing up to 5 results
|